Regional Weather Roundup
Issued by NWS Mobile, AL

Home | Current Version | Previous Version | Text Only | Print | Product List | Glossary On
Versions: 1 2 3 4 5 6 7 8 9 10 11 12 13 14 15 16 17 18 19 20 21 22 23 24 25 26 27 28
000
ASUS44 KMOB 301112
RWRMOB
REGIONAL WEATHER ROUNDUP
NATIONAL WEATHER SERVICE MOBILE AL
600 AM CDT MON MAY 30 2016

NOTE: "FAIR" INDICATES FEW OR NO CLOUDS BELOW 12,000 FEET WITH NO
      SIGNIFICANT WEATHER AND/OR OBSTRUCTIONS TO VISIBILITY.

  * THESE STATIONS ARE PART OF THE UNIVERSITY OF SOUTH ALABAMA
    MESONET AND ARE NOT UNDER NWS OR FAA QUALITY CONTROL.

ALZ061>064-301200-
COASTAL ALABAMA

CITY           SKY/WX    TMP DP  RH WIND       PRES   REMARKS
MOBILE REG APT PTCLDY    68  68 100 CALM      30.02R
BROOKLEY FIELD PTCLDY    71  69  93 CALM      30.02R
USA CAMPUS*    NOT AVBL
DOG RIVER*     NOT AVBL


CITY           SKY/WX    TMP DP  RH WIND       PRES   REMARKS
MOUNT VERNON*  NOT AVBL
SARALAND*      NOT AVBL
BAY MINETTE*   NOT AVBL
LOXLEY*        NOT AVBL
ROBERTSDALE*   NOT AVBL
FAIRHOPE*      NOT AVBL
ELBERTA*       NOT AVBL
FOLEY*         NOT AVBL
GRAND BAY*     NOT AVBL
DAUPHIN ISLND* NOT AVBL
BON SCOUR NWR* NOT AVBL
GULF SHORES    CLOUDY    69  69 100 NW3       30.00S

$$

ALZ051>060-301200-
INTERIOR SOUTHWEST AND SOUTH CENTRAL ALABAMA

CITY           SKY/WX    TMP DP  RH WIND       PRES   REMARKS
GREENVILLE     CLEAR     68  63  84 CALM      30.01R
EVERGREEN      CLEAR     66  64  93 CALM      30.02R
CASTLEBERRY*   NOT AVBL
ATMORE*        NOT AVBL
DIXIE*         NOT AVBL
ANDALUSIA/OPP  PTCLDY    73  66  78 CALM      30.01R
ANDALUSIA*     NOT AVBL
FLORALA APT    CLOUDY    69  67  93 CALM      30.03R
FLORALA*       NOT AVBL

$$

FLZ001>006-301200-
WESTERN FLORIDA PANHANDLE

CITY           SKY/WX    TMP DP  RH WIND       PRES   REMARKS
PENSACOLA      MOCLDY    73  68  84 NW5       30.00R
NAS PENSACOLA  NOT AVBL
MILTON         NOT AVBL
WHTNG S FIELD    N/A    N/A N/A N/A MISG      30.01R


CITY           SKY/WX    TMP DP  RH WIND       PRES   REMARKS
WALNUT HILL*   NOT AVBL
JAY*           NOT AVBL
DUKE FIELD     MOCLDY    68  66  93 W3        30.00R
CRESTVIEW      CLOUDY    66  64  93 CALM      30.02R FOG
VALPARAISO     MOCLDY    71  67  86 N2        30.00R HAZE
DESTIN         MOCLDY    76  71  85 NW5       30.00R

$$

MSZ076-079-301200-
INTERIOR SOUTHEAST MISSISSIPPI

CITY           SKY/WX    TMP DP  RH WIND       PRES   REMARKS
LEAKESVILLE*   NOT AVBL
AGRICOLA*      NOT AVBL

$$

MARINE OBSERVATIONS

STATION/POSITION TIME  TEMP    WIND        PRES    WAVE
                       AIR SEA DIR/SP/G            HT/PER
                 (UTC) (F)     (DEG/KT/KT) (MB)    (FT/S)
PASCAGOULA       1000   76     340/  4/  5 1015.4S
PETIT BOIS ISLND 1000   79     300/  7/  8 1016.1F
GRAND BAY        0900   76     350/  3     1017.0F
KATRINA CUT      1000   80     330/  8     1016.3S
CEDAR POINT      1000   77     330/  7     1015.6F
E DAUPHIN ISLAND 1000   80     300/  7/  8 1015.5F
MIDDLE BAY LIGHT 1000   78     290/  4     1015.6S
USCG MOBILE BAY  1000   74 80  300/  2/  3 1016.2F
STATE DOCKS      1000   74 81              1015.7F
MEAHER PARK      1000   73      20/  2     1015.2F
WEEKS BAY        0900   71                   N/A
FORT MORGAN      1000   80     330/  7/  8 1015.3F
12 S ORANGE BCH  1050   80 81              1015.1S   1/ 3
PENSACOLA BAY    1000      81  290/  3/  4 1015.7F
64 S DAUPHIN ISL 1000   79 80  270/  6/  6 1015.8F

$$

SELECTED LOCATIONS ACROSS THE REGION

CITY           SKY/WX    TMP DP  RH WIND       PRES   REMARKS
NEW ORLEANS    PTCLDY    73  71  93 CALM      30.00R
GULFPORT       CLEAR     70  68  93 NW5       29.99S
PASCAGOULA AP  PTCLDY    67  66  97 SE3       30.00S
PASCAGOULA*    NOT AVBL
HATTIESBURG    CLEAR     69  66  90 CALM      30.02S
LAUREL         CLEAR     66  63  88 CALM      30.03R
MERIDIAN       CLEAR     68  63  84 CALM      30.03R
JACKSON        PTCLDY    67  64  90 N6        30.04R
MONTGOMERY     CLEAR     68  65  90 CALM      30.02R
TROY           PTCLDY    67  65  93 CALM      30.02R
KINSTON*       NOT AVBL
GENEVA*        NOT AVBL
ASHFORD*       NOT AVBL
DOTHAN         CLEAR     71  67  87 N3        30.04R
PANAMA CITY    CLEAR     70  67  90 CALM      29.99R

$$





USA.gov is the U.S. government's official web portal to all federal, state and local government web resources and services.